Location: Dampvalley
(47.9094°N, 6.1967°E)
Time: 05:57:35
(UTC+00:00)

KKS-1 - Pass Details

Date: 08 December 2021
Orbit: 635 x 650 km, 98.2° (Epoch: 21 January)

Event Time Altitude Azimuth Distance (km) Brightness Sun altitude
Rises 06:19:11 0° 103° (ESE) 2,966 ? -8.5°
Maximum altitude 06:24:10 10° 54° (NE) 2,062 ? -7.7°
Drops below altitude 10° 06:24:15 10° 53° (NE) 2,062 ? -7.7°
Sets 06:29:08 0° 5° (N) 2,977 ? -7.0°
